| time (UTC) | temp F | wind direction | speed MPH | gust MPH | rain 1hr in | rain 24hr in | rain mn in | humidity % | barometer mb |
| 20260502130106 | 55 | 0 | 0.0 | 3.0 | 0.01 | 0.10 | 0.10 | 97 | 1009.1 |
| 20260502123054 | 55 | 136 | 0.0 | 3.0 | 0.00 | 0.09 | 0.09 | 97 | 1008.5 |
| 20260502121557 | 55 | 0 | 0.0 | 3.0 | 0.01 | 0.09 | 0.09 | 97 | 1008.0 |
| 20260502114557 | 55 | 0 | 0.0 | 2.0 | 0.02 | 0.09 | 0.09 | 97 | 1007.8 |
| 20260502113058 | 55 | 0 | 0.0 | 2.0 | 0.02 | 0.09 | 0.09 | 97 | 1007.9 |
| 20260502111557 | 55 | 0 | 0.0 | 0.0 | 0.02 | 0.08 | 0.08 | 97 | 1008.1 |
| 20260502104557 | 55 | 0 | 0.0 | 0.0 | 0.03 | 0.07 | 0.07 | 97 | 1008.5 |
| 20260502103106 | 55 | 0 | 0.0 | 0.0 | 0.03 | 0.07 | 0.07 | 96 | 1008.8 |
| 20260502101613 | 55 | 0 | 0.0 | 0.0 | 0.03 | 0.06 | 0.06 | 96 | 1008.5 |
| 20260502090114 | 56 | 0 | 0.0 | 0.0 | 0.02 | 0.02 | 0.02 | 95 | 1008.5 |
| 20260502070110 | 57 | 0 | 0.0 | 0.0 | 0.00 | 0.00 | 0.00 | 87 | 1008.0 |
| 20260502064618 | 57 | 0 | 0.0 | 0.0 | 0.00 | 0.00 | 0.00 | 86 | 1008.6 |
| 20260502063057 | 58 | 0 | 0.0 | 0.0 | 0.00 | 0.00 | 0.00 | 86 | 1008.6 |
| 20260502061553 | 58 | 0 | 0.0 | 2.0 | 0.00 | 0.00 | 0.00 | 86 | 1008.5 |
| 20260502060058 | 58 | 0 | 0.0 | 0.0 | 0.00 | 0.00 | 0.00 | 87 | 1008.8 |
| 20260502054600 | 58 | 0 | 0.0 | 1.0 | 0.00 | 0.00 | 0.00 | 87 | 1009.0 |
| 20260502053056 | 58 | 0 | 0.0 | 2.0 | 0.00 | 0.00 | 0.00 | 87 | 1009.0 |
| 20260502051556 | 58 | 0 | 0.0 | 1.0 | 0.00 | 0.00 | 0.00 | 87 | 1009.0 |
| 20260502050054 | 58 | 0 | 0.0 | 0.0 | 0.00 | 0.00 | 0.00 | 88 | 1009.0 |
| 20260502044559 | 58 | 0 | 0.0 | 0.0 | 0.00 | 0.00 | 0.00 | 89 | 1009.3 |
| 20260502043058 | 58 | 0 | 0.0 | 0.0 | 0.00 | 0.00 | 0.00 | 89 | 1009.1 |
| 20260502041604 | 58 | 0 | 0.0 | 0.0 | 0.00 | 0.00 | 0.00 | 88 | 1009.4 |
| 20260502040059 | 58 | 0 | 0.0 | 0.0 | 0.00 | 0.00 | 0.00 | 88 | 1009.5 |
| 20260502034558 | 58 | 0 | 0.0 | 0.0 | 0.00 | 0.00 | 0.00 | 88 | 1009.6 |
| 20260502033101 | 58 | 0 | 0.0 | 0.0 | 0.00 | 0.00 | 0.00 | 88 | 1009.4 |
| 20260502031559 | 58 | 0 | 0.0 | 0.0 | 0.00 | 0.00 | 0.00 | 88 | 1009.6 |
| 20260502030058 | 58 | 0 | 0.0 | 0.0 | 0.00 | 0.00 | 0.00 | 88 | 1009.7 |
| 20260502024608 | 58 | 0 | 0.0 | 0.0 | 0.00 | 0.00 | 0.00 | 88 | 1009.6 |
| 20260502023121 | 58 | 0 | 0.0 | 0.0 | 0.00 | 0.00 | 0.00 | 87 | 1009.7 |
| 20260502021556 | 58 | 0 | 0.0 | 0.0 | 0.00 | 0.00 | 0.00 | 86 | 1009.5 |
| 20260502020059 | 58 | 0 | 0.0 | 0.0 | 0.00 | 0.00 | 0.00 | 86 | 1009.3 |
| 20260502014557 | 58 | 0 | 0.0 | 0.0 | 0.00 | 0.00 | 0.00 | 86 | 1009.3 |
| 20260502013057 | 59 | 0 | 0.0 | 0.0 | 0.00 | 0.00 | 0.00 | 85 | 1009.2 |
| 20260502011555 | 59 | 0 | 0.0 | 0.0 | 0.00 | 0.00 | 0.00 | 86 | 1009.4 |
| 20260502010058 | 59 | 0 | 0.0 | 0.0 | 0.00 | 0.00 | 0.00 | 84 | 1009.5 |
| 20260502004559 | 60 | 0 | 0.0 | 0.0 | 0.00 | 0.00 | 0.00 | 83 | 1009.6 |
| 20260502003056 | 60 | 0 | 0.0 | 0.0 | 0.00 | 0.00 | 0.00 | 83 | 1009.2 |
| 20260502001629 | 60 | 0 | 0.0 | 0.0 | 0.00 | 0.00 | 0.00 | 81 | 1008.9 |
| 20260502000121 | 61 | 0 | 0.0 | 0.0 | 0.00 | 0.00 | 0.00 | 79 | 1009.0 |
| 20260501234559 | 62 | 0 | 0.0 | 0.0 | 0.00 | 0.00 | 0.00 | 77 | 1008.9 |
| 20260501233057 | 62 | 0 | 0.0 | 1.0 | 0.00 | 0.00 | 0.00 | 74 | 1008.8 |
| 20260501231604 | 63 | 0 | 0.0 | 1.0 | 0.00 | 0.00 | 0.00 | 71 | 1008.9 |
| 20260501230056 | 64 | 0 | 0.0 | 2.0 | 0.00 | 0.00 | 0.00 | 68 | 1009.0 |
| 20260501224607 | 64 | 75 | 0.0 | 3.0 | 0.00 | 0.00 | 0.00 | 67 | 1009.2 |
| 20260501223054 | 64 | 0 | 0.0 | 3.0 | 0.00 | 0.00 | 0.00 | 67 | 1009.1 |
| 20260501221556 | 64 | 0 | 0.0 | 3.0 | 0.00 | 0.00 | 0.00 | 65 | 1009.3 |
| 20260501220059 | 64 | 60 | 2.0 | 3.0 | 0.00 | 0.00 | 0.00 | 63 | 1009.4 |
| 20260501214557 | 64 | 0 | 0.0 | 3.0 | 0.00 | 0.00 | 0.00 | 65 | 1009.7 |
| 20260501213058 | 64 | 0 | 0.0 | 2.0 | 0.00 | 0.00 | 0.00 | 63 | 1009.8 |
| 20260501211555 | 65 | 93 | 1.0 | 3.0 | 0.00 | 0.00 | 0.00 | 62 | 1009.6 |
| 20260501210055 | 65 | 160 | 0.0 | 3.0 | 0.00 | 0.00 | 0.00 | 63 | 1009.5 |
| 20260501204557 | 65 | 0 | 1.0 | 5.0 | 0.00 | 0.00 | 0.00 | 61 | 1009.3 |
| 20260501203100 | 64 | 280 | 1.0 | 7.0 | 0.00 | 0.00 | 0.00 | 60 | 1009.6 |
| 20260501201558 | 64 | 307 | 1.0 | 3.0 | 0.00 | 0.00 | 0.00 | 59 | 1009.6 |
| 20260501200057 | 64 | 137 | 0.0 | 7.0 | 0.00 | 0.00 | 0.00 | 62 | 1009.9 |
| 20260501194601 | 63 | 41 | 1.0 | 8.0 | 0.00 | 0.00 | 0.00 | 62 | 1010.0 |
| 20260501193055 | 63 | 7 | 2.0 | 6.0 | 0.00 | 0.00 | 0.00 | 61 | 1010.2 |
| 20260501191556 | 62 | 40 | 2.0 | 8.0 | 0.00 | 0.00 | 0.00 | 62 | 1010.4 |
| 20260501190054 | 62 | 63 | 2.0 | 6.0 | 0.00 | 0.00 | 0.00 | 61 | 1010.6 |
| 20260501184556 | 61 | 15 | 1.0 | 7.0 | 0.00 | 0.00 | 0.00 | 61 | 1010.9 |
| 20260501183058 | 61 | 17 | 1.0 | 6.0 | 0.00 | 0.00 | 0.00 | 61 | 1011.2 |
| 20260501181600 | 60 | 150 | 2.0 | 6.0 | 0.00 | 0.00 | 0.00 | 61 | 1011.4 |
| 20260501180057 | 60 | 150 | 2.0 | 6.0 | 0.00 | 0.00 | 0.00 | 62 | 1011.3 |
| 20260501174557 | 59 | 319 | 1.0 | 5.0 | 0.00 | 0.00 | 0.00 | 62 | 1011.5 |
| 20260501173123 | 59 | 37 | 3.0 | 7.0 | 0.00 | 0.00 | 0.00 | 63 | 1011.3 |
| 20260501171557 | 59 | 41 | 2.0 | 5.0 | 0.00 | 0.00 | 0.00 | 62 | 1011.5 |
| 20260501170108 | 59 | 96 | 1.0 | 6.0 | 0.00 | 0.00 | 0.00 | 62 | 1012.0 |
| 20260501164618 | 59 | 104 | 3.0 | 7.0 | 0.00 | 0.00 | 0.00 | 60 | 1011.6 |
| 20260501163055 | 59 | 55 | 1.0 | 7.0 | 0.00 | 0.00 | 0.00 | 61 | 1011.6 |
| 20260501161559 | 59 | 81 | 3.0 | 8.0 | 0.00 | 0.00 | 0.00 | 60 | 1012.0 |
| 20260501160059 | 58 | 122 | 3.0 | 8.0 | 0.00 | 0.00 | 0.00 | 61 | 1012.1 |
| 20260501154605 | 58 | 150 | 2.0 | 6.0 | 0.00 | 0.00 | 0.00 | 61 | 1012.2 |
| 20260501153101 | 58 | 101 | 1.0 | 4.0 | 0.00 | 0.00 | 0.00 | 63 | 1012.0 |
| 20260501151604 | 58 | 328 | 2.0 | 7.0 | 0.00 | 0.00 | 0.00 | 63 | 1012.2 |
| 20260501150055 | 58 | 128 | 2.0 | 7.0 | 0.00 | 0.00 | 0.00 | 62 | 1012.2 |
| 20260501144616 | 58 | 337 | 1.0 | 4.0 | 0.00 | 0.02 | 0.00 | 62 | 1011.9 |
| 20260501143057 | 58 | 155 | 3.0 | 8.0 | 0.00 | 0.02 | 0.00 | 60 | 1011.8 |
| 20260501141601 | 59 | 0 | 2.0 | 7.0 | 0.00 | 0.02 | 0.00 | 63 | 1011.7 |
| 20260501140059 | 59 | 87 | 1.0 | 11.0 | 0.00 | 0.02 | 0.00 | 62 | 1011.6 |
| 20260501134612 | 58 | 128 | 2.0 | 12.0 | 0.00 | 0.09 | 0.00 | 61 | 1011.7 |
| 20260501133102 | 59 | 168 | 2.0 | 6.0 | 0.00 | 0.09 | 0.00 | 61 | 1011.5 |